,,Stat5,,Stat1,,Stat2,,Stat3,,Stat4,,Wind1,,Wind1,
time,status,PA1M_AVG,status,PR1M_SUM,status,RH1M_AVG,status,SR1M_AVG,status,TA1M_AVG,status,W1dAve1m,status,W1sAve1m,
2002-07-14, 00:00:01,VALID,918.711,VALID,0,VALID,89.0378,VALID,0,VALID,19.7576,VALID,18,VALID,0.411024,
2002-07-14, 00:01:00,VALID,918.705,VALID,0,VALID,89.1153,VALID,0,VALID,19.7519,VALID,18,VALID,0.452324,
2002-07-14, 00:02:00,VALID,918.682,VALID,0,VALID,89.3595,VALID,0,VALID,19.6962,VALID,16,VALID,0.645633,
2002-07-14, 00:03:00,VALID,918.672,VALID,0,VALID,89.5515,VALID,0.0509425,VALID,19.7094,VALID,277,VALID,0.433594,
2002-07-14, 00:04:00,VALID,918.686,VALID,0,VALID,89.8274,VALID,-0.0849042,VALID,19.6557,VALID,236,VALID,0.141518,
2002-07-14, 00:05:00,VALID,918.691,VALID,0,VALID,90.1059,VALID,-0.0849042,VALID,19.6165,VALID,224,VALID,0.0599662,
2002-07-14, 00:06:00,VALID,918.696,VALID,0,VALID,90.2814,VALID,-0.0679233,VALID,19.5944,VALID,307,VALID,0.398438,
2002-07-14, 00:07:00,VALID,918.705,VALID,0,VALID,90.4454,VALID,-0.101885,VALID,19.5847,VALID,335,VALID,0.101563,
2002-07-14, 00:08:00,VALID,918.709,VALID,0,VALID,90.4683,VALID,-0.101885,VALID,19.5553,VALID,341,VALID,0.146835,
2002-07-14, 00:09:00,VALID,918.713,VALID,0,VALID,90.4009,VALID,-0.101885,VALID,19.5715,VALID,1,VALID,0.453125,
2002-07-14, 00:10:00,VALID,918.707,VALID,0,VALID,90.0894,VALID,-0.101885,VALID,19.617,VALID,19,VALID,0.526316,
2002-07-14, 00:11:00,VALID,918.711,VALID,0,VALID,90.036,VALID,-0.101885,VALID,19.604,VALID,24,VALID,0.242634,
2002-07-14, 00:12:00,VALID,918.703,VALID,0,VALID,90.0271,VALID,-0.0849042,VALID,19.6011,VALID,24,VALID,0.48117,
2002-07-14, 00:13:00,VALID,918.712,VALID,0,VALID,90.0665,VALID,-0.101885,VALID,19.5909,VALID,24,VALID,0.281013,
2002-07-14, 00:14:00,VALID,918.734,VALID,0,VALID,90.1911,VALID,-0.0849042,VALID,19.5715,VALID,24,VALID,0,
2002-07-14, 00:15:00,VALID,918.743,VALID,0,VALID,90.3068,VALID,-0.101885,VALID,19.5489,VALID,24,VALID,0,
2002-07-14, 00:16:00,VALID,918.744,VALID,0,VALID,90.5853,VALID,-0.0509425,VALID,19.5325,VALID,24,VALID,0.0610978,
2002-07-14, 00:17:01,VALID,918.733,VALID,0,VALID,90.8383,VALID,-0.0339617,VALID,19.5168,VALID,27,VALID,0.52763,
2002-07-14, 00:18:00,VALID,918.731,VALID,0,VALID,91.1702,VALID,-0.101885,VALID,19.4649,VALID,28,VALID,0.384191,
2002-07-14, 00:19:00,VALID,918.709,VALID,0,VALID,91.2173,VALID,-0.0169808,VALID,19.4028,VALID,25,VALID,0.710304,
2002-07-14, 00:20:00,VALID,918.679,VALID,0,VALID,91.5543,VALID,-0.0169808,VALID,19.3054,VALID,26,VALID,0.821023,
2002-07-14, 00:21:00,VALID,918.658,VALID,0,VALID,92.0375,VALID,0,VALID,19.2828,VALID,22,VALID,0.638514,
2002-07-14, 00:22:01,VALID,918.651,VALID,0,VALID,91.8378,VALID,0,VALID,19.3253,VALID,31,VALID,0.236842,
2002-07-14, 00:23:00,VALID,918.655,VALID,0,VALID,91.684,VALID,-0.0169808,VALID,19.3414,VALID,34,VALID,0.000411184,
2002-07-14, 00:24:00,VALID,918.641,VALID,0,VALID,91.6089,VALID,0,VALID,19.3511,VALID,38,VALID,0.415396,
2002-07-14, 00:25:00,VALID,918.621,VALID,0,VALID,91.5988,VALID,-0.0169808,VALID,19.3543,VALID,21,VALID,0.278493,
2002-07-14, 00:26:00,VALID,918.628,VALID,0,VALID,91.6217,VALID,-0.0169808,VALID,19.3511,VALID,16,VALID,0,
2002-07-14, 00:27:01,VALID,918.624,VALID,0,VALID,91.7132,VALID,-0.0169808,VALID,19.3608,VALID,16,VALID,0.0996094,
2002-07-14, 00:28:00,VALID,918.608,VALID,0,VALID,91.8111,VALID,0.0169808,VALID,19.367,VALID,18,VALID,0.213471,
2002-07-14, 00:29:01,VALID,918.59,VALID,0,VALID,91.7488,VALID,-0.0509425,VALID,19.3804,VALID,37,VALID,0.867188,
2002-07-14, 00:30:00,VALID,918.563,VALID,0,VALID,91.7653,VALID,0,VALID,19.3869,VALID,2,VALID,0.807771,
2002-07-14, 00:31:00,VALID,918.566,VALID,0,VALID,91.6776,VALID,0,VALID,19.4801,VALID,23,VALID,0.907227,
2002-07-14, 00:32:00,VALID,918.531,VALID,0,VALID,91.1194,VALID,-0.0339617,VALID,19.5636,VALID,10,VALID,0.687946,
2002-07-14, 00:33:00,VALID,918.522,VALID,0,VALID,90.8816,VALID,0,VALID,19.5864,VALID,359,VALID,0.580025,
2002-07-14, 00:34:00,VALID,918.503,VALID,0,VALID,90.7938,VALID,0,VALID,19.6187,VALID,16,VALID,0.77068,
2002-07-14, 00:35:00,VALID,918.476,VALID,0,VALID,90.5535,VALID,0,VALID,19.6672,VALID,26,VALID,1.19866,
2002-07-14, 00:36:00,VALID,918.449,VALID,0,VALID,90.2941,VALID,0,VALID,19.7126,VALID,23,VALID,0.896434,
2002-07-14, 00:37:00,VALID,918.451,VALID,0,VALID,90.111,VALID,-0.0169808,VALID,19.7477,VALID,9,VALID,0.84016,
2002-07-14, 00:38:00,VALID,918.439,VALID,0,VALID,89.9215,VALID,0,VALID,19.7805,VALID,12,VALID,0.517887,
2002-07-14, 00:39:00,VALID,918.45,VALID,0,VALID,89.6748,VALID,0,VALID,19.8128,VALID,19,VALID,0.716741,
2002-07-14, 00:40:00,VALID,918.421,VALID,0,VALID,89.5922,VALID,0,VALID,19.8319,VALID,22,VALID,1.22296,
2002-07-14, 00:41:00,VALID,918.43,VALID,0,VALID,89.5934,VALID,-0.0169808,VALID,19.8451,VALID,12,VALID,0.641572,
2002-07-14, 00:42:00,VALID,918.429,VALID,0,VALID,89.3747,VALID,0,VALID,19.8799,VALID,14,VALID,0.915365,
2002-07-14, 00:43:00,VALID,918.423,VALID,0,VALID,88.8852,VALID,0.0169808,VALID,19.9514,VALID,357,VALID,0.535979,
2002-07-14, 00:44:00,VALID,918.443,VALID,0,VALID,88.8279,VALID,-0.0169808,VALID,19.9673,VALID,12,VALID,0.350361,
2002-07-14, 00:45:01,VALID,918.424,VALID,0,VALID,88.8445,VALID,0,VALID,19.9706,VALID,343,VALID,0.389101,
2002-07-14, 00:46:00,VALID,918.416,VALID,0,VALID,88.7733,VALID,0,VALID,20.0096,VALID,308,VALID,0.284697,
2002-07-14, 00:47:00,VALID,918.404,VALID,0,VALID,88.6931,VALID,0,VALID,20.0392,VALID,359,VALID,0.302365,
2002-07-14, 00:48:00,VALID,918.372,VALID,0,VALID,88.8216,VALID,-0.0169808,VALID,20.0779,VALID,347,VALID,0.546875,
2002-07-14, 00:49:00,VALID,918.36,VALID,0,VALID,88.4121,VALID,0,VALID,20.0909,VALID,333,VALID,0.743454,
2002-07-14, 00:50:01,VALID,918.337,VALID,0,VALID,87.9721,VALID,0.0169808,VALID,20.1358,VALID,359,VALID,1.32792,
2002-07-14, 00:51:00,VALID,918.32,VALID,0,VALID,87.7089,VALID,0,VALID,20.2002,VALID,14,VALID,1.20868,
2002-07-14, 00:52:01,VALID,918.298,VALID,0,VALID,87.7076,VALID,-0.0169808,VALID,20.2295,VALID,28,VALID,1.44417,
2002-07-14, 00:53:00,VALID,918.282,VALID,0,VALID,87.686,VALID,-0.0169808,VALID,20.2161,VALID,28,VALID,1.24081,
2002-07-14, 00:54:00,VALID,918.298,VALID,0,VALID,87.7305,VALID,0,VALID,20.2096,VALID,32,VALID,0.898438,
2002-07-14, 00:55:01,VALID,918.302,VALID,0,VALID,88.1603,VALID,0,VALID,20.2221,VALID,322,VALID,1.36597,
2002-07-14, 00:56:01,VALID,918.334,VALID,0,VALID,88.374,VALID,0,VALID,20.2096,VALID,320,VALID,0.411106,
2002-07-14, 00:57:01,VALID,918.346,VALID,0,VALID,88.1222,VALID,0,VALID,20.2161,VALID,329,VALID,0.361225,
2002-07-14, 00:58:00,VALID,918.345,VALID,0,VALID,88.0205,VALID,0,VALID,20.2188,VALID,351,VALID,0.199013,
2002-07-14, 00:59:00,VALID,918.328,VALID,0,VALID,87.9671,VALID,-0.0339617,VALID,20.2288,VALID,9,VALID,0.55,
2002-07-14, 01:00:00,VALID,918.319,VALID,0,VALID,87.6186,VALID,0,VALID,20.2449,VALID,16,VALID,0.95067,
2002-07-14, 01:01:00,VALID,918.295,VALID,0,VALID,87.6835,VALID,0,VALID,20.3066,VALID,2,VALID,0.987331,
2002-07-14, 01:02:00,VALID,918.275,VALID,0,VALID,87.4012,VALID,0,VALID,20.3157,VALID,355,VALID,1.49127,
2002-07-14, 01:03:00,VALID,918.257,VALID,0,VALID,86.6853,VALID,0,VALID,20.4038,VALID,2,VALID,1.62076,
2002-07-14, 01:04:00,VALID,918.25,VALID,0,VALID,86.6599,VALID,0,VALID,20.4452,VALID,20,VALID,0.999599,
2002-07-14, 01:05:00,VALID,918.234,VALID,0,VALID,86.726,VALID,-0.0169808,VALID,20.4907,VALID,17,VALID,0.537373,
2002-07-14, 01:06:00,VALID,918.206,VALID,0,VALID,86.6382,VALID,0,VALID,20.484,VALID,12,VALID,1.28845,
2002-07-14, 01:07:00,VALID,918.171,VALID,0,VALID,86.6802,VALID,0,VALID,20.4646,VALID,20,VALID,1.28705,
2002-07-14, 01:08:00,VALID,918.154,VALID,0,VALID,86.7031,VALID,0,VALID,20.4681,VALID,8,VALID,1.2506,
2002-07-14, 01:09:01,VALID,918.16,VALID,0,VALID,86.7044,VALID,0,VALID,20.4681,VALID,345,VALID,0.549953,
2002-07-14, 01:10:00,VALID,918.146,VALID,0,VALID,86.7565,VALID,-0.0339617,VALID,20.4482,VALID,251,VALID,0.493273,
2002-07-14, 01:11:00,VALID,918.129,VALID,0,VALID,86.7794,VALID,-0.0169808,VALID,20.4321,VALID,306,VALID,0.579153,
2002-07-14, 01:12:00,VALID,918.106,VALID,0,VALID,86.8747,VALID,0,VALID,20.3799,VALID,315,VALID,0.467748,
2002-07-14, 01:13:01,VALID,918.091,VALID,0,VALID,87.1164,VALID,0,VALID,20.3709,VALID,345,VALID,0.450076,
2002-07-14, 01:14:00,VALID,918.073,VALID,0,VALID,87.461,VALID,0,VALID,20.3577,VALID,8,VALID,0.772059,
2002-07-14, 01:15:00,VALID,918.068,VALID,0,VALID,87.5322,VALID,0,VALID,20.322,VALID,2,VALID,0.635135,
2002-07-14, 01:16:00,VALID,918.077,VALID,0,VALID,87.653,VALID,-0.0169808,VALID,20.3063,VALID,335,VALID,0.597538,
2002-07-14, 01:17:00,VALID,918.111,VALID,0,VALID,87.5525,VALID,0,VALID,20.2511,VALID,238,VALID,0.695513,
2002-07-14, 01:18:01,VALID,918.111,VALID,0,VALID,87.6275,VALID,-0.0169808,VALID,20.2094,VALID,244,VALID,0.455592,
2002-07-14, 01:19:00,VALID,918.1,VALID,0,VALID,87.728,VALID,0,VALID,20.1505,VALID,254,VALID,0.25884,
2002-07-14, 01:20:01,VALID,918.091,VALID,0,VALID,87.9569,VALID,0.0169808,VALID,20.1311,VALID,255,VALID,0.173971,
2002-07-14, 01:21:00,VALID,918.09,VALID,0,VALID,88.2951,VALID,0.0169808,VALID,20.1214,VALID,303,VALID,0.299403,
2002-07-14, 01:22:00,VALID,918.079,VALID,0,VALID,88.5126,VALID,0,VALID,20.1058,VALID,244,VALID,0.355574,
2002-07-14, 01:23:01,VALID,918.1,VALID,0,VALID,88.7758,VALID,0.0169808,VALID,20.0603,VALID,66,VALID,0.449707,
2002-07-14, 01:24:00,VALID,918.076,VALID,0,VALID,89.0301,VALID,0.0169808,VALID,19.9989,VALID,23,VALID,0.746833,
2002-07-14, 01:25:01,VALID,918.052,VALID,0,VALID,89.3836,VALID,0,VALID,19.9378,VALID,33,VALID,1.20107,
2002-07-14, 01:26:00,VALID,918.012,VALID,0,VALID,89.5693,VALID,0.0169808,VALID,19.8858,VALID,26,VALID,0.964021,
2002-07-14, 01:27:01,VALID,918.017,VALID,0,VALID,89.7092,VALID,0.0169808,VALID,19.8789,VALID,305,VALID,0.363477,
2002-07-14, 01:28:00,VALID,918.052,VALID,0,VALID,89.7956,VALID,0,VALID,19.8493,VALID,279,VALID,0.223438,
2002-07-14, 01:29:00,VALID,918.073,VALID,0,VALID,89.802,VALID,0,VALID,19.8503,VALID,275,VALID,0.456503,
2002-07-14, 01:30:00,VALID,918.071,VALID,0,VALID,89.8122,VALID,0.0339617,VALID,19.8438,VALID,275,VALID,0.179458,
2002-07-14, 01:31:00,VALID,918.057,VALID,0,VALID,89.8732,VALID,-0.0169808,VALID,19.8468,VALID,6,VALID,0.550223,
2002-07-14, 01:32:00,VALID,918.052,VALID,0,VALID,90.1275,VALID,0,VALID,19.8081,VALID,9,VALID,0.215946,
2002-07-14, 01:33:00,VALID,918.054,VALID,0,VALID,90.2076,VALID,-0.0169808,VALID,19.7897,VALID,1,VALID,0.288429,
2002-07-14, 01:34:01,VALID,918.049,VALID,0,VALID,90.3602,VALID,0,VALID,19.7469,VALID,352,VALID,0.436266,
2002-07-14, 01:35:00,VALID,918.043,VALID,0,VALID,90.5052,VALID,0,VALID,19.7144,VALID,346,VALID,0.400223,
2002-07-14, 01:36:00,VALID,918.043,VALID,0,VALID,90.5866,VALID,0.0169808,VALID,19.7149,VALID,295,VALID,0.452925,
2002-07-14, 01:37:01,VALID,918.044,VALID,0,VALID,90.378,VALID,-0.0169808,VALID,19.7571,VALID,294,VALID,0.686316,
2002-07-14, 01:38:00,VALID,918.025,VALID,0,VALID,90.0093,VALID,-0.0339617,VALID,19.8508,VALID,344,VALID,0.580946,
2002-07-14, 01:39:00,VALID,918.024,VALID,0,VALID,89.9711,VALID,0,VALID,19.8734,VALID,12,VALID,0.248355,
2002-07-14, 01:40:00,VALID,918.004,VALID,0,VALID,90.069,VALID,0,VALID,19.8344,VALID,12,VALID,0.123998,
2002-07-14, 01:41:01,VALID,918.004,VALID,0,VALID,90.2191,VALID,0,VALID,19.8023,VALID,12,VALID,0.160442,
2002-07-14, 01:42:00,VALID,918.001,VALID,0,VALID,90.3857,VALID,0,VALID,19.7601,VALID,12,VALID,0.282399,
2002-07-14, 01:43:00,VALID,917.986,VALID,0,VALID,90.5395,VALID,-0.0169808,VALID,19.7278,VALID,12,VALID,0.544975,
2002-07-14, 01:44:00,VALID,918.005,VALID,0,VALID,90.804,VALID,0.0169808,VALID,19.7052,VALID,12,VALID,0.0428504,
2002-07-14, 01:45:00,VALID,917.976,VALID,0,VALID,90.9235,VALID,0.0169808,VALID,19.6662,VALID,12,VALID,0.230785,
2002-07-14, 01:46:01,VALID,917.967,VALID,0,VALID,91.1651,VALID,0.0339617,VALID,19.6657,VALID,9,VALID,0.653372,
2002-07-14, 01:47:01,VALID,917.976,VALID,0,VALID,91.3012,VALID,0.0169808,VALID,19.6468,VALID,7,VALID,0.672903,
2002-07-14, 01:48:01,VALID,917.963,VALID,0,VALID,91.5454,VALID,0,VALID,19.5984,VALID,7,VALID,0.506479,
2002-07-14, 01:49:01,VALID,917.964,VALID,0,VALID,91.7552,VALID,-0.101885,VALID,19.5812,VALID,3,VALID,0.0857077,
2002-07-14, 01:50:01,VALID,917.956,VALID,0,VALID,91.7412,VALID,-0.101885,VALID,19.5648,VALID,3,VALID,0.00211149,
2002-07-14, 01:51:01,VALID,917.946,VALID,0,VALID,91.8048,VALID,-0.0849042,VALID,19.5737,VALID,3,VALID,0.197266,
2002-07-14, 01:52:00,VALID,917.941,VALID,0,VALID,91.9841,VALID,-0.0849042,VALID,19.5966,VALID,3,VALID,0.0601774,
2002-07-14, 01:53:01,VALID,917.946,VALID,0,VALID,92.101,VALID,-0.0849042,VALID,19.5867,VALID,3,VALID,0.00102796,
2002-07-14, 01:54:00,VALID,917.959,VALID,0,VALID,91.9256,VALID,-0.0849042,VALID,19.5872,VALID,5,VALID,0.354441,
2002-07-14, 01:55:01,VALID,917.922,VALID,0,VALID,91.4029,VALID,-0.101885,VALID,19.6162,VALID,24,VALID,0.687109,
2002-07-14, 01:56:00,VALID,917.906,VALID,0,VALID,91.23,VALID,-0.101885,VALID,19.6644,VALID,29,VALID,0.421429,
2002-07-14, 01:57:00,VALID,917.92,VALID,0,VALID,91.3762,VALID,-0.101885,VALID,19.7131,VALID,27,VALID,0.136402,
2002-07-14, 01:58:01,VALID,917.918,VALID,0,VALID,91.3711,VALID,-0.101885,VALID,19.7228,VALID,27,VALID,0.0569853,
2002-07-14, 01:59:01,VALID,917.908,VALID,0,VALID,91.3241,VALID,-0.101885,VALID,19.7293,VALID,24,VALID,0.172991,
2002-07-14, 02:00:01,VALID,917.895,VALID,0,VALID,91.4449,VALID,-0.101885,VALID,19.742,VALID,23,VALID,0.00600962,
2002-07-14, 02:01:01,VALID,917.895,VALID,0,VALID,91.4805,VALID,-0.101885,VALID,19.7484,VALID,122,VALID,0.313556,
2002-07-14, 02:02:01,VALID,917.875,VALID,0,VALID,91.4373,VALID,-0.118866,VALID,19.7681,VALID,316,VALID,0.512541,
2002-07-14, 02:03:01,VALID,917.855,VALID,0,VALID,91.7374,VALID,-0.118866,VALID,19.7713,VALID,22,VALID,0.325893,
2002-07-14, 02:04:01,VALID,917.836,VALID,0,VALID,91.8544,VALID,0,VALID,19.7571,VALID,359,VALID,0.640825,
2002-07-14, 02:05:01,VALID,917.836,VALID,0,VALID,92.1875,VALID,0,VALID,19.734,VALID,353,VALID,0.558949,
2002-07-14, 02:06:01,VALID,917.817,VALID,0,VALID,92.3058,VALID,0.0169808,VALID,19.7121,VALID,358,VALID,0.318142,
2002-07-14, 02:07:01,VALID,917.81,VALID,0,VALID,92.0387,VALID,0.0169808,VALID,19.6826,VALID,44,VALID,0.463405,
2002-07-14, 02:08:01,VALID,917.815,VALID,0,VALID,91.8353,VALID,0.0169808,VALID,19.6756,VALID,42,VALID,0.138221,
2002-07-14, 02:09:01,VALID,917.817,VALID,0,VALID,91.8696,VALID,0,VALID,19.689,VALID,42,VALID,0.0396341,
2002-07-14, 02:10:01,VALID,917.805,VALID,0,VALID,92.1201,VALID,0,VALID,19.7151,VALID,42,VALID,0.0981158,
2002-07-14, 02:11:01,VALID,917.803,VALID,0,VALID,92.1189,VALID,0,VALID,19.7308,VALID,42,VALID,0.0536318,
2002-07-14, 02:12:01,VALID,917.807,VALID,0,VALID,91.8951,VALID,-0.0169808,VALID,19.7278,VALID,42,VALID,0.0556345,
2002-07-14, 02:13:01,VALID,917.797,VALID,0,VALID,92.2295,VALID,0,VALID,19.7278,VALID,42,VALID,0.29413,
2002-07-14, 02:14:01,VALID,917.787,VALID,0,VALID,92.1926,VALID,0,VALID,19.731,VALID,41,VALID,0.200247,
2002-07-14, 02:15:01,VALID,917.777,VALID,0,VALID,92.363,VALID,0,VALID,19.7248,VALID,46,VALID,0.567845,
2002-07-14, 02:16:01,VALID,917.775,VALID,0,VALID,92.321,VALID,0,VALID,19.7022,VALID,85,VALID,0.312691,
2002-07-14, 02:17:01,VALID,917.787,VALID,0,VALID,92.2981,VALID,-0.0169808,VALID,19.699,VALID,71,VALID,0.0909926,
2002-07-14, 02:18:01,VALID,917.804,VALID,0,VALID,92.2842,VALID,-0.0169808,VALID,19.7248,VALID,70,VALID,0,
2002-07-14, 02:19:01,VALID,917.792,VALID,0,VALID,92.1252,VALID,-0.101885,VALID,19.7454,VALID,70,VALID,0,
2002-07-14, 02:20:01,VALID,917.783,VALID,0,VALID,91.8811,VALID,-0.0339617,VALID,19.7452,VALID,63,VALID,0.083826,
2002-07-14, 02:21:01,VALID,917.795,VALID,0,VALID,91.8226,VALID,-0.101885,VALID,19.7646,VALID,39,VALID,0.485403,
2002-07-14, 02:22:01,VALID,917.782,VALID,0,VALID,91.7196,VALID,-0.0339617,VALID,19.7872,VALID,30,VALID,0.827508,
2002-07-14, 02:23:00,VALID,917.799,VALID,0,VALID,91.6623,VALID,-0.101885,VALID,19.781,VALID,15,VALID,0.3875,
2002-07-14, 02:24:00,VALID,917.8,VALID,0,VALID,91.6382,VALID,-0.0679233,VALID,19.7743,VALID,349,VALID,0.407813,
2002-07-14, 02:25:00,VALID,917.815,VALID,0,VALID,91.492,VALID,-0.0339617,VALID,19.7877,VALID,214,VALID,0.635135,
2002-07-14, 02:26:00,VALID,917.803,VALID,0,VALID,91.127,VALID,-0.0509425,VALID,19.8424,VALID,247,VALID,0.592831,
2002-07-14, 02:27:00,VALID,917.776,VALID,0,VALID,90.776,VALID,-0.0849042,VALID,19.9326,VALID,1,VALID,1.11071,
2002-07-14, 02:28:00,VALID,917.76,VALID,0,VALID,90.5065,VALID,-0.0679233,VALID,19.9751,VALID,268,VALID,0.668269,
2002-07-14, 02:29:00,VALID,917.755,VALID,0,VALID,90.35,VALID,-0.0339617,VALID,19.9969,VALID,5,VALID,0.428632,
2002-07-14, 02:30:00,VALID,917.719,VALID,0,VALID,90.1657,VALID,-0.0339617,VALID,20.0203,VALID,14,VALID,0.169408,
2002-07-14, 02:31:00,VALID,917.724,VALID,0,VALID,90.2254,VALID,-0.0169808,VALID,20.0198,VALID,38,VALID,0.770089,
2002-07-14, 02:32:00,VALID,917.698,VALID,0,VALID,90.5548,VALID,-0.0509425,VALID,20.0101,VALID,41,VALID,0.38722,
2002-07-14, 02:33:00,VALID,917.653,VALID,0,VALID,90.4416,VALID,-0.0339617,VALID,19.9843,VALID,89,VALID,0.317235,
2002-07-14, 02:34:00,VALID,917.631,VALID,0,VALID,90.5243,VALID,-0.101885,VALID,19.9972,VALID,33,VALID,0.496745,
2002-07-14, 02:35:00,VALID,917.584,VALID,0,VALID,90.6514,VALID,-0.0679233,VALID,19.9977,VALID,20,VALID,0.41139,
2002-07-14, 02:36:00,VALID,917.559,VALID,0,VALID,90.5484,VALID,-0.0849042,VALID,19.9945,VALID,35,VALID,0.258213,
2002-07-14, 02:37:00,VALID,917.539,VALID,0,VALID,90.5955,VALID,-0.0849042,VALID,19.991,VALID,67,VALID,0.158155,
2002-07-14, 02:38:00,VALID,917.529,VALID,0,VALID,90.5001,VALID,-0.0339617,VALID,19.9805,VALID,191,VALID,0.512408,
2002-07-14, 02:39:00,VALID,917.52,VALID,0,VALID,90.3526,VALID,-0.101885,VALID,20.0166,VALID,247,VALID,0.526605,
2002-07-14, 02:40:00,VALID,917.499,VALID,0,VALID,90.4912,VALID,-0.0679233,VALID,20.0494,VALID,281,VALID,0.196259,
2002-07-14, 02:41:00,VALID,917.488,VALID,0,VALID,90.6501,VALID,-0.0509425,VALID,20.0427,VALID,14,VALID,0.428843,
2002-07-14, 02:42:00,VALID,917.49,VALID,0,VALID,90.9515,VALID,-0.0679233,VALID,20.0263,VALID,25,VALID,0.509457,
2002-07-14, 02:43:00,VALID,917.489,VALID,0,VALID,91.1664,VALID,-0.0339617,VALID,20.0235,VALID,107,VALID,0.292146,
2002-07-14, 02:44:00,VALID,917.485,VALID,0,VALID,91.2491,VALID,-0.0849042,VALID,19.9907,VALID,123,VALID,0.197599,
2002-07-14, 02:45:00,VALID,917.484,VALID,0,VALID,91.4169,VALID,-0.0679233,VALID,19.9746,VALID,65,VALID,0.310202,
2002-07-14, 02:46:00,VALID,917.466,VALID,0,VALID,91.628,VALID,-0.0509425,VALID,19.9843,VALID,75,VALID,0.369088,
2002-07-14, 02:47:00,VALID,917.467,VALID,0,VALID,91.5275,VALID,-0.0339617,VALID,19.9716,VALID,50,VALID,0.505371,
2002-07-14, 02:48:00,VALID,917.446,VALID,0,VALID,91.5606,VALID,-0.0849042,VALID,19.9716,VALID,64,VALID,0.392314,
2002-07-14, 02:49:00,VALID,917.443,VALID,0,VALID,91.3966,VALID,-0.0509425,VALID,19.9942,VALID,345,VALID,0.322985,
2002-07-14, 02:50:00,VALID,917.428,VALID,0,VALID,91.3622,VALID,0,VALID,20.0069,VALID,5,VALID,0.0707237,
2002-07-14, 02:51:00,VALID,917.417,VALID,0,VALID,91.4907,VALID,-0.0339617,VALID,20.0325,VALID,352,VALID,0.533594,
2002-07-14, 02:52:00,VALID,917.421,VALID,0,VALID,91.6484,VALID,-0.0509425,VALID,20.0332,VALID,1,VALID,1.21183,
2002-07-14, 02:53:00,VALID,917.379,VALID,0,VALID,91.89,VALID,-0.0509425,VALID,20.0295,VALID,13,VALID,0.743454,
2002-07-14, 02:54:00,VALID,917.412,VALID,0,VALID,92.0133,VALID,0,VALID,20.0228,VALID,199,VALID,0.41682,
2002-07-14, 02:55:00,VALID,917.397,VALID,0,VALID,92.0095,VALID,-0.0679233,VALID,20.029,VALID,28,VALID,0.477902,
2002-07-14, 02:56:00,VALID,917.395,VALID,0,VALID,92.0705,VALID,-0.0679233,VALID,20.0551,VALID,24,VALID,0.447716,
2002-07-14, 02:57:00,VALID,917.367,VALID,0,VALID,92.0095,VALID,-0.0339617,VALID,20.0677,VALID,8,VALID,0.245777,
2002-07-14, 02:58:00,VALID,917.364,VALID,0,VALID,91.7552,VALID,-0.0339617,VALID,20.0772,VALID,156,VALID,0.595395,
2002-07-14, 02:59:00,VALID,917.336,VALID,0,VALID,91.7679,VALID,-0.0679233,VALID,20.0906,VALID,28,VALID,0.569643,
2002-07-14, 03:00:00,VALID,917.331,VALID,0,VALID,92.0909,VALID,-0.0169808,VALID,20.107,VALID,20,VALID,0.562099,
2002-07-14, 03:01:00,VALID,917.321,VALID,0,VALID,92.1977,VALID,-0.0679233,VALID,20.107,VALID,27,VALID,0.783617,
2002-07-14, 03:02:00,VALID,917.333,VALID,0,VALID,92.0337,VALID,-0.0679233,VALID,20.0871,VALID,76,VALID,1.06228,
2002-07-14, 03:03:00,VALID,917.316,VALID,0,VALID,92.0871,VALID,-0.0849042,VALID,20.1003,VALID,57,VALID,0.634868,
2002-07-14, 03:04:00,VALID,917.315,VALID,0,VALID,92.1023,VALID,-0.0509425,VALID,20.1167,VALID,24,VALID,0.692708,
2002-07-14, 03:05:00,VALID,917.312,VALID,0,VALID,91.7564,VALID,-0.0339617,VALID,20.1165,VALID,38,VALID,0.800876,
2002-07-14, 03:06:00,VALID,917.29,VALID,0,VALID,91.8073,VALID,-0.0849042,VALID,20.1557,VALID,36,VALID,0.641544,
2002-07-14, 03:07:00,VALID,917.314,VALID,0,VALID,91.8226,VALID,-0.0509425,VALID,20.1687,VALID,28,VALID,0.61761,
2002-07-14, 03:08:00,VALID,917.32,VALID,0,VALID,91.8391,VALID,-0.0339617,VALID,20.1364,VALID,29,VALID,0.577178,
2002-07-14, 03:09:00,VALID,917.318,VALID,0,VALID,92.185,VALID,-0.0679233,VALID,20.1227,VALID,15,VALID,0.741132,
2002-07-14, 03:10:00,VALID,917.322,VALID,0,VALID,92.3261,VALID,-0.0679233,VALID,20.1035,VALID,3,VALID,0.623355,
2002-07-14, 03:11:00,VALID,917.334,VALID,0,VALID,92.5665,VALID,-0.0679233,VALID,20.0715,VALID,6,VALID,0.5331,
2002-07-14, 03:12:00,VALID,917.344,VALID,0,VALID,92.7496,VALID,-0.0679233,VALID,20.0546,VALID,27,VALID,0.609566,
2002-07-14, 03:13:00,VALID,917.332,VALID,0,VALID,92.7407,VALID,-0.0849042,VALID,20.0518,VALID,321,VALID,0.459329,
2002-07-14, 03:14:00,VALID,917.354,VALID,0,VALID,92.7712,VALID,-0.0679233,VALID,20.0456,VALID,285,VALID,0.152872,
2002-07-14, 03:15:00,VALID,917.345,VALID,0,VALID,92.8068,VALID,-0.0339617,VALID,20.0357,VALID,353,VALID,0.5,
2002-07-14, 03:16:00,VALID,917.337,VALID,0,VALID,92.7864,VALID,-0.0339617,VALID,20.0225,VALID,21,VALID,0.581503,
2002-07-14, 03:17:00,VALID,917.323,VALID,0,VALID,92.8411,VALID,-0.0509425,VALID,20.0161,VALID,15,VALID,0.279811,
2002-07-14, 03:18:00,VALID,917.315,VALID,0,VALID,92.9467,VALID,-0.0339617,VALID,20.0066,VALID,12,VALID,0.221423,
2002-07-14, 03:19:00,VALID,917.322,VALID,0,VALID,93.0141,VALID,-0.0679233,VALID,19.9862,VALID,348,VALID,0.0925781,
2002-07-14, 03:20:00,VALID,917.322,VALID,0,VALID,93.0764,VALID,-0.0339617,VALID,20.0002,VALID,357,VALID,0.0685268,
2002-07-14, 03:21:00,VALID,917.326,VALID,0,VALID,93.0916,VALID,-0.0339617,VALID,19.9743,VALID,29,VALID,0.611909,
2002-07-14, 03:22:00,VALID,917.312,VALID,0,VALID,93.1094,VALID,-0.0169808,VALID,19.9577,VALID,42,VALID,0.373162,
2002-07-14, 03:23:00,VALID,917.309,VALID,0,VALID,93.0369,VALID,-0.0509425,VALID,19.9323,VALID,23,VALID,0.59308,
2002-07-14, 03:24:00,VALID,917.281,VALID,0,VALID,93.1272,VALID,-0.0339617,VALID,19.906,VALID,344,VALID,0.104167,
2002-07-14, 03:25:00,VALID,917.276,VALID,0,VALID,93.2366,VALID,-0.0679233,VALID,19.9065,VALID,345,VALID,0.675253,
2002-07-14, 03:26:00,VALID,917.247,VALID,0,VALID,93.2213,VALID,-0.0339617,VALID,19.9298,VALID,18,VALID,1.10629,
2002-07-14, 03:27:00,VALID,917.24,VALID,0,VALID,93.1361,VALID,-0.0509425,VALID,19.9062,VALID,4,VALID,0.916964,
2002-07-14, 03:28:00,VALID,917.23,VALID,0,VALID,93.1552,VALID,-0.0679233,VALID,19.9032,VALID,12,VALID,0.851563,
2002-07-14, 03:29:00,VALID,917.234,VALID,0,VALID,93.2633,VALID,-0.0849042,VALID,19.8873,VALID,29,VALID,0.415483,
2002-07-14, 03:30:00,VALID,917.236,VALID,0,VALID,93.2646,VALID,-0.0509425,VALID,19.8739,VALID,11,VALID,0.67079,
2002-07-14, 03:31:00,VALID,917.223,VALID,0,VALID,93.3536,VALID,-0.0849042,VALID,19.8615,VALID,14,VALID,1.31702,
2002-07-14, 03:32:00,VALID,917.218,VALID,0,VALID,93.3714,VALID,-0.101885,VALID,19.8744,VALID,18,VALID,1.14343,
2002-07-14, 03:33:00,VALID,917.215,VALID,0,VALID,93.2213,VALID,-0.0679233,VALID,19.8935,VALID,22,VALID,1.11814,
2002-07-14, 03:34:00,VALID,917.214,VALID,0,VALID,93.1514,VALID,0.0849042,VALID,19.9047,VALID,20,VALID,0.737362,